OneWeb SL0309

operational
NORAD ID: 49095 Int'l Des: 2021-075 Owner: ONEWEBN Country: UK Constellation: oneweb
LEOCIRCULARPOLARONEWEB_TYPE

Über OneWeb SL0309

Beschreibung wird geladen...

Live-Position

3D-Globus wird geladen...

Nächste Überflüge

Höhenverlauf

Altitude vs Time

uPlot chart will show altitude changes over time

Zweizeiliger Elementsatz

1 49095U 21075W 25349.85505477 .00000057 00000-0 11323-3 0 9991
2 49095 87.9119 42.3110 0001394 92.2700 267.8591 13.17648244209438
Epoch: 15. Dez. 2025 • Age: 13 hours

Aktueller Status

Höhe 1201.4 km
Geschwindigkeit 7.26 km/s
Subsatellitenpunkt 52.34°N, 176.47°E
Startdatum 21. Aug. 2021
Alter 4.3 years
Typ internet

Technische Details

Klassifizierung Payload
Masse 148.00 kg
Trockenmasse 140.00 kg
Gesamtmasse 148.00 kg
Länge 1.30 m
Durchmesser 1.00 m
Spannweite 5.00 m
Form Trapezoid+2 pan
Hersteller ONEWUS
Bus-Typ ARROW
Phasenstatus In Orbit
Besitzer/Staat ONEWEBN/UK

Große Konstellationen

Loading constellations...